Clarksdale Fletcher Field Air, MS

5:49 AM CST on November 13, 2019 (GMT -0600)
Fletcher

Weather History for KCKM - September, 2019

Change the Weather History Date:

Sunday, September 8, 2019

  Actual Average (WUND) Record (WUND)
Temperature  
Mean Temperature 82 °F -  
Max Temperature 96 °F - - (-1)
Min Temperature 69 °F - - (-1)
Cooling Degree Days 18    
Growing Degree Days 32 (Base 50)    
Moisture  
Dew Point 74 °F    
Average Humidity 77    
Maximum Humidity 100    
Minimum Humidity 44    
Precipitation  
Precipitation 0.00 in - - ()
Sea Level Pressure  
Sea Level Pressure 30.00 in    
Wind  
Wind Speed 1 mph ()    
Max Wind Speed 7 mph    
Max Gust Speed 13 mph    
Visibility 10.0 miles    
Events      
Averages and records for this station are not official NWS values.
T = Trace of Precipitation, MM = Missing Value Source: Averaged Metar Reports

Daily Weather History Graph

Daily Weather History Graph

Search for Another Location

Airport or City:

Astronomy

Sep. 08, 2019 Rise Set
Actual Time 6:40 AM CDT 7:18 PM CDT
Civil Twilight 6:14 AM CDT 7:44 PM CDT
Nautical Twilight 5:44 AM CDT 8:13 PM CDT
Astronomical Twilight 5:14 AM CDT 8:44 PM CDT
Moon 4:15 PM CDT (9/8) 1:32 AM CDT (9/8)
Length of Visible Light 13h 29m
Length of Day
12h 38m
Waxing Gibbous, 75% of the Moon is Illuminated
Sep 8
Waxing Gibbous
Sep 13
Full
Sep 21
Last Quarter
Sep 28
New
Oct 5
First Quarter

Hourly Weather History & Observations

Time (CDT) Temp. Heat Index Dew Point Humidity Pressure Visibility Wind Dir Wind Speed Gust Speed Precip Events Conditions
12:15 AM 75.2 °F - 75.2 °F 100% 29.98 in 10.0 mi NNE 4.6 mph - N/A   Unknown
12:35 AM 73.4 °F - 73.4 °F 100% 29.98 in 10.0 mi Calm Calm - N/A   Unknown
12:55 AM 73.4 °F - 73.4 °F 100% 29.99 in 10.0 mi Calm Calm - N/A   Unknown
1:15 AM 73.4 °F - 73.4 °F 100% 29.99 in 10.0 mi Calm Calm - N/A   Unknown
1:55 AM 73.4 °F - 73.4 °F 100% 29.98 in 10.0 mi Calm Calm - N/A   Unknown
2:15 AM 73.4 °F - 73.4 °F 100% 29.98 in 10.0 mi Calm Calm - N/A   Unknown
2:35 AM 73.4 °F - 73.4 °F 100% 29.97 in 10.0 mi NE 4.6 mph - N/A   Unknown
2:55 AM 73.4 °F - 73.4 °F 100% 29.97 in 10.0 mi Calm Calm - N/A   Unknown
3:15 AM 73.4 °F - 73.4 °F 100% 29.97 in 10.0 mi Calm Calm - N/A   Unknown
3:35 AM 73.4 °F - 73.4 °F 100% 29.97 in 10.0 mi Calm Calm - N/A   Unknown
3:55 AM 71.6 °F - 71.6 °F 100% 29.97 in 10.0 mi Calm Calm - N/A   Unknown
4:15 AM 71.6 °F - 71.6 °F 100% 29.97 in 10.0 mi Calm Calm - N/A   Unknown
4:35 AM 71.6 °F - 71.6 °F 100% 29.98 in 10.0 mi Calm Calm - N/A   Unknown
4:55 AM 71.6 °F - 71.6 °F 100% 29.98 in 10.0 mi Calm Calm - N/A   Unknown
5:15 AM 73.4 °F - 73.4 °F 100% 29.98 in 10.0 mi Calm Calm - N/A   Unknown
5:35 AM 71.6 °F - 71.6 °F 100% 29.99 in 10.0 mi Calm Calm - N/A   Unknown
5:55 AM 71.6 °F - 71.6 °F 100% 30.00 in 10.0 mi Calm Calm - N/A   Unknown
6:15 AM 71.6 °F - 71.6 °F 100% 30.00 in 10.0 mi Calm Calm - N/A   Unknown
6:35 AM 69.8 °F - 69.8 °F 100% 30.01 in 10.0 mi Calm Calm - N/A   Unknown
6:55 AM 71.6 °F - 71.6 °F 100% 30.01 in 10.0 mi Calm Calm - N/A   Unknown
7:15 AM 71.6 °F - 71.6 °F 100% 30.01 in 10.0 mi Calm Calm - N/A   Unknown
7:35 AM 73.4 °F - 73.4 °F 100% 30.01 in 10.0 mi Calm Calm - N/A   Unknown
7:55 AM 73.4 °F - 73.4 °F 100% 30.01 in 10.0 mi Calm Calm - N/A   Unknown
8:15 AM 75.2 °F - 73.4 °F 94% 30.01 in 10.0 mi Calm Calm - N/A   Unknown
8:35 AM 77.0 °F - 73.4 °F 89% 30.01 in 10.0 mi Calm Calm - N/A   Unknown
8:55 AM 78.8 °F - 71.6 °F 78% 30.01 in 10.0 mi Calm Calm - N/A   Unknown
9:15 AM 80.6 °F 84.6 °F 71.6 °F 74% 30.02 in 10.0 mi SE 5.8 mph - N/A   Unknown
9:35 AM 82.4 °F 87.2 °F 71.6 °F 70% 30.02 in 10.0 mi Calm Calm - N/A   Unknown
9:55 AM 84.2 °F 90.9 °F 73.4 °F 70% 30.03 in 10.0 mi Calm Calm - N/A   Unknown
10:15 AM 86.0 °F 93.4 °F 73.4 °F 66% 30.03 in 10.0 mi SSE 5.8 mph - N/A   Unknown
10:35 AM 87.8 °F 95.6 °F 73.4 °F 62% 30.03 in 10.0 mi SSE 5.8 mph - N/A   Unknown
10:55 AM 87.8 °F 97.6 °F 75.2 °F 66% 30.03 in 10.0 mi SE 4.6 mph - N/A   Unknown
11:15 AM 89.6 °F 99.8 °F 75.2 °F 62% 30.03 in 10.0 mi Calm Calm - N/A   Unknown
11:35 AM 91.4 °F 102.5 °F 75.2 °F 59% 30.03 in 10.0 mi Calm Calm - N/A   Unknown
11:55 AM 91.4 °F 105.1 °F 77.0 °F 63% 30.03 in 10.0 mi Variable 4.6 mph - N/A   Unknown
12:15 PM 93.2 °F 107.2 °F 77.0 °F 59% 30.03 in 10.0 mi Calm Calm - N/A   Unknown
12:35 PM 93.2 °F 105.0 °F 75.2 °F 56% 30.02 in 10.0 mi Calm Calm - N/A   Unknown
12:55 PM 93.2 °F 105.0 °F 75.2 °F 56% 30.02 in 10.0 mi Calm Calm - N/A   Unknown
1:15 PM 93.2 °F 102.4 °F 73.4 °F 52% 30.02 in 10.0 mi Calm Calm - N/A   Unknown
1:55 PM 95.0 °F 104.5 °F 73.4 °F 49% 30.00 in 10.0 mi Calm Calm - N/A   Unknown
2:15 PM 95.0 °F 104.5 °F 73.4 °F 49% 30.00 in 10.0 mi Calm Calm - N/A   Unknown
2:35 PM 96.8 °F 107.3 °F 73.4 °F 47% 29.99 in 10.0 mi Variable 3.5 mph - N/A   Unknown
2:55 PM 96.8 °F 105.1 °F 71.6 °F 44% 29.99 in 10.0 mi Calm Calm - N/A   Unknown
3:15 PM 96.8 °F 105.1 °F 71.6 °F 44% 29.98 in 10.0 mi Calm Calm - N/A   Unknown
3:35 PM 96.8 °F 107.3 °F 73.4 °F 47% 29.98 in 10.0 mi Calm Calm - N/A   Unknown
3:55 PM 95.0 °F 104.5 °F 73.4 °F 49% 29.97 in 10.0 mi ENE 4.6 mph 12.7 mph N/A   Unknown
4:15 PM 96.8 °F 107.3 °F 73.4 °F 47% 29.97 in 10.0 mi Calm Calm - N/A   Unknown
4:35 PM 95.0 °F 104.5 °F 73.4 °F 49% 29.97 in 10.0 mi Calm Calm - N/A   Unknown
4:55 PM 95.0 °F 103.2 °F 71.6 °F 47% 29.97 in 10.0 mi Calm Calm - N/A   Unknown
5:15 PM 95.0 °F 101.3 °F 69.8 °F 44% 29.97 in 10.0 mi Calm Calm - N/A   Unknown
5:55 PM 95.0 °F 104.5 °F 73.4 °F 49% 29.97 in 10.0 mi East 5.8 mph - N/A   Unknown
6:15 PM 95.0 °F 104.5 °F 73.4 °F 49% 29.97 in 10.0 mi East 6.9 mph - N/A   Unknown
6:35 PM 93.2 °F 105.0 °F 75.2 °F 56% 29.96 in 10.0 mi Calm Calm - N/A   Unknown
6:55 PM 91.4 °F 102.5 °F 75.2 °F 59% 29.97 in 10.0 mi Calm Calm - N/A   Unknown
7:15 PM 89.6 °F 102.2 °F 77.0 °F 66% 29.98 in 10.0 mi Calm Calm - N/A   Unknown
7:35 PM 87.8 °F 99.7 °F 77.0 °F 70% 29.98 in 10.0 mi Calm Calm - N/A   Unknown
7:55 PM 86.0 °F 99.3 °F 78.8 °F 79% 29.98 in 10.0 mi Calm Calm - N/A   Unknown
8:15 PM 86.0 °F 96.9 °F 77.0 °F 74% 29.99 in 10.0 mi Calm Calm - N/A   Unknown
8:35 PM 86.0 °F 99.3 °F 78.8 °F 79% 30.00 in 10.0 mi Calm Calm - N/A   Unknown
8:55 PM 86.0 °F 99.3 °F 78.8 °F 79% 30.01 in 10.0 mi Calm Calm - N/A   Unknown
9:15 PM 84.2 °F 94.1 °F 77.0 °F 79% 30.01 in 10.0 mi Calm Calm - N/A   Unknown
9:35 PM 82.4 °F 90.9 °F 77.0 °F 84% 30.01 in 10.0 mi Calm Calm - N/A   Unknown
9:55 PM 82.4 °F 90.9 °F 77.0 °F 84% 30.01 in 10.0 mi Calm Calm - N/A   Unknown
10:35 PM 80.6 °F 88.1 °F 78.8 °F 94% 30.01 in 10.0 mi Calm Calm - N/A   Unknown
10:55 PM 80.6 °F 88.1 °F 78.8 °F 94% 30.01 in 10.0 mi Calm Calm - N/A   Unknown
11:15 PM 78.8 °F - 78.8 °F 100% 30.02 in 10.0 mi Calm Calm - N/A   Unknown
11:35 PM 78.8 °F - 78.8 °F 100% 30.02 in 10.0 mi Calm Calm - N/A   Unknown